Home   Weather   Sankt Augustin   Past weeks
Flag for Germany

Past Weather in Sankt Augustin, North Rhine-Westphalia, Germany — Yesterday and Last 2 Weeks

Now
54 °F

Partly sunny.


Feels Like: 51 °F
Forecast: 69 / 47 °F
Wind: 8 mph from Northwest

Location: Koeln / Bonn

Current Time: May 22, 2019 at 11:55:21 am

Latest Report: May 22, 2019 at 11:20 am


Visibility: N/A

Pressure: 30.12 "Hg

Humidity: 67%

Dew Point: 43 °F

Location of Sankt AugustinLocation

Past Weather in Sankt Augustin — Graph

°F

Sankt Augustin Temperature Yesterday

Maximum temperature yesterday: 55 °F (at 12:20 am)
Minimum temperature yesterday: 52 °F (at 4:50 am)
Average temperature yesterday: 53 °F

High & Low Weather Summary for the Past Weeks

 TemperatureHumidityPressure
High73 °F (May 18, 3:50 pm)100% (May 8, 7:50 pm)30.69 "Hg (May 8, 7:50 pm)
Low32 °F (May 13, 6:20 am)22% (May 15, 2:20 pm)29.45 "Hg (May 8, 5:20 pm)
Average52 °F73%29.97 "Hg
* Reported May 7 10:20 am — May 22 10:20 am, Sankt Augustin. Weather by CustomWeather, © 2019

Note: Actual official high and low records may vary slightly from our data, if they occured in-between our weather recording intervals... More about our weather records

Advertising

Sankt Augustin Weather History for the Previous 24 Hours

Scroll right to see more
 ConditionsComfort  
Time TempWeatherWind HumidityBarometerVisibility
10:20 am
Wed, May 22
52 °FPartly sunny.9 mph72%30.12 "HgN/A
9:50 am52 °FPartly sunny.8 mph72%30.12 "HgN/A
9:20 am50 °FPartly sunny.10 mph76%30.12 "HgN/A
8:50 am50 °FPartly sunny.10 mph76%30.09 "HgN/A
8:20 am50 °FPartly sunny.13 mph82%30.09 "HgN/A
7:50 am50 °FPartly sunny.14 mph82%30.09 "HgN/A
7:20 am50 °FPartly sunny.14 mph82%30.09 "HgN/A
6:50 am50 °FPartly sunny.13 mph88%30.07 "Hg6 mi
6:20 am50 °FPartly sunny.10 mph94%30.07 "Hg5 mi
5:50 am50 °FPartly sunny.12 mph94%30.07 "Hg4 mi
5:20 am50 °FPassing clouds.14 mph100%30.07 "Hg4 mi
4:50 am52 °FFog.15 mph94%30.07 "Hg2 mi
4:20 am52 °FPassing clouds.13 mph94%30.04 "Hg4 mi
3:50 am52 °FPassing clouds.14 mph94%30.04 "Hg4 mi
3:20 am52 °FPassing clouds.12 mph94%30.04 "Hg4 mi
2:50 am52 °FPassing clouds.9 mph94%30.04 "Hg5 mi
2:20 am52 °FPassing clouds.9 mph94%30.04 "Hg5 mi
1:50 am52 °FDrizzle. Fog.8 mph94%30.04 "Hg2 mi
1:20 am52 °FPassing clouds.9 mph94%30.04 "Hg4 mi
12:50 am52 °FPassing clouds.9 mph94%30.04 "HgN/A
11:50 pm
Tue, May 21
54 °FPassing clouds.7 mph94%30.04 "HgN/A
11:20 pm54 °FPassing clouds.12 mph94%30.04 "HgN/A
10:50 pm54 °FPassing clouds.8 mph94%30.04 "HgN/A
10:20 pm54 °FPassing clouds.8 mph94%30.04 "HgN/A
9:50 pm54 °FLight rain. Mostly cloudy.10 mph94%30.01 "Hg4 mi
9:20 pm54 °FLight rain. Mostly cloudy.12 mph94%30.01 "Hg4 mi
8:50 pm54 °FLight rain. Partly sunny.13 mph94%30.01 "HgN/A
8:20 pm54 °FLight rain. Partly sunny.10 mph94%30.01 "HgN/A
7:50 pm54 °FLight rain. Partly sunny.12 mph94%29.98 "HgN/A
7:20 pm54 °FLight rain. Partly sunny.10 mph94%29.98 "Hg6 mi
6:50 pm54 °FLight rain. Partly sunny.12 mph94%29.98 "Hg6 mi
6:20 pm54 °FLight rain. Broken clouds.14 mph94%29.98 "Hg6 mi
5:50 pm54 °FDrizzle. Partly sunny.12 mph94%29.98 "Hg4 mi
5:20 pm54 °FDrizzle. Partly sunny.12 mph94%29.98 "Hg4 mi
4:50 pm54 °FDrizzle. Partly sunny.13 mph94%29.95 "Hg4 mi
4:20 pm54 °FDrizzle. Low clouds.17 mph94%29.95 "Hg4 mi
3:50 pm54 °FDrizzle. Low clouds.17 mph94%29.95 "Hg3 mi
3:20 pm54 °FDrizzle. Broken clouds.18 mph94%29.95 "Hg3 mi
2:50 pm54 °FDrizzle. Broken clouds.17 mph94%29.92 "Hg2 mi
1:50 pm54 °FLight rain. Partly sunny.17 mph94%29.92 "Hg4 mi
1:20 pm54 °FLight rain. Partly sunny.16 mph94%29.92 "Hg6 mi
12:50 pm54 °FPartly sunny.17 mph94%29.89 "Hg6 mi
12:20 pm54 °FLight rain. Partly sunny.16 mph94%29.89 "Hg5 mi
11:50 am54 °FLight rain. Partly sunny.16 mph94%29.89 "Hg4 mi
11:20 am52 °FHeavy rain. Fog.16 mph100%29.89 "Hg1 mi
Weather by CustomWeather, © 2019

See weather overview